Location: Morlupo
(42.1333°N, 12.5000°E)
Time: 16:33:14
(UTC+00:00)

SPOT 3 Rocket - Pass Details

Date: 18 September 2020
Orbit: 780 x 794 km, 98.8° (Epoch: 25 October)

Event Time Altitude Azimuth Distance (km) Brightness Sun altitude
Exits shadow 20:03:39 51° 261° (W) 976 4.1 -30.5°
Drops below altitude 10° 20:08:38 10° 336° (NNW) 2,341 6.7 -31.2°
Sets 20:11:02 0° 342° (NNW) 3,274 7.5 -31.6°
